Estació meteorològica de Museu de l'Esquerda (Osona, Plana de Vic)

Consulta les dades en temps real de l'estació meteorològica de Museu de l'Esquerda





Hora UTC 08:25
Temperatura 14.9 ºC
Humitat 80.0 %
Pressió 1013.6 hPa
Pluja 0.0 mm
Velocitat vent 0.0 km/h
Direcció vent N
Radiació solar 501.0 W/m²

Dades diàries 2026-05-09



Hora UTC (hivern +1h; estiu +2h)
Temperatura (ºC) Humitat (%) Pressió (hPa) Velocitat vent (km/h) Precipitació (mm) Radiació solar (W/m²)
Hora UTC Aire Humitat Pressió Vel. Dir. Vel. Max Dir. Intent. màx 5 min. Rad. Sol.
00:05 9.8 90.0 1016.3 0.0 SSW 0.0 0.0 0.0
00:10 9.8 90.0 1016.3 0.0 SSW 0.0 0.0 0.0
00:15 9.7 90.0 1016.2 0.0 SSW 0.0 0.0 0.0
00:20 9.7 90.0 1016.3 0.0 SSW 0.0 0.0 0.0
00:25 9.6 90.0 1016.4 0.0 SSW 0.0 0.0 0.0
00:30 9.6 90.0 1016.3 0.0 SSW 0.0 0.0 0.0
00:35 9.5 90.0 1016.2 0.0 SSW 0.0 0.0 0.0
00:40 9.4 91.0 1016.2 0.0 SSW 0.0 0.0 0.0
00:45 9.4 90.0 1016.1 0.0 SSW 0.0 0.0 0.0
00:50 9.4 91.0 1016.3 0.0 SSW 0.0 0.0 0.0
00:55 9.4 91.0 1016.2 0.0 SSW 0.0 0.0 0.0
01:00 9.4 91.0 1016.1 0.0 SSW 0.0 0.0 0.0
01:05 9.4 91.0 1016.2 0.0 SSW 0.0 0.0 0.0
01:10 9.4 91.0 1016.1 0.0 SSW 0.0 0.0 0.0
01:15 9.4 91.0 1016.1 0.0 SSW 0.0 0.0 0.0
01:20 9.4 91.0 1016.1 0.0 SSW 0.0 0.0 0.0
01:25 9.5 91.0 1016.0 0.0 SSW 0.0 0.0 0.0
01:30 9.6 91.0 1016.0 0.0 SSW 0.0 0.0 0.0
01:35 9.6 91.0 1015.9 0.0 SSW 0.0 0.0 0.0
01:40 9.6 92.0 1015.9 0.0 SSW 0.0 0.0 0.0
01:45 9.7 92.0 1015.9 0.0 SSW 0.0 0.0 0.0
01:50 9.8 92.0 1015.8 0.0 SSW 0.0 0.0 0.0
01:55 9.8 92.0 1015.7 0.0 SSW 0.0 0.0 0.0
02:00 9.8 92.0 1015.8 0.0 SSW 0.0 0.0 0.0
02:05 9.9 92.0 1015.7 0.0 SSW 0.0 0.0 0.0
02:10 9.9 92.0 1015.7 0.0 SSW 0.0 0.0 0.0
02:15 9.9 92.0 1015.5 0.0 SSW 0.0 0.0 0.0
02:20 9.9 92.0 1015.5 0.0 SSW 0.0 0.0 0.0
02:25 9.9 92.0 1015.5 0.0 SSW 0.0 0.0 0.0
02:30 9.9 92.0 1015.4 0.0 SSW 1.6 0.0 0.0
02:35 9.9 92.0 1015.4 0.0 SSW 1.6 0.0 0.0
02:40 9.9 92.0 1015.3 0.0 SSW 1.6 0.0 0.0
02:45 9.8 92.0 1015.3 0.0 SSW 1.6 0.0 0.0
02:50 9.8 92.0 1015.2 0.0 SSW 1.6 0.0 0.0
02:55 9.7 92.0 1015.2 0.0 SSW 0.0 0.0 0.0
03:00 9.6 92.0 1015.1 0.0 SSW 0.0 0.0 0.0
03:05 9.5 92.0 1015.0 0.0 SSW 0.0 0.0 0.0
03:10 9.4 92.0 1015.1 0.0 SSW 0.0 0.0 0.0
03:15 9.3 91.0 1015.0 3.2 SSW 4.8 0.0 0.0
03:20 9.2 92.0 1015.0 0.0 SSW 4.8 0.0 0.0
03:25 9.1 92.0 1014.9 0.0 SSW 3.2 0.0 0.0
03:30 9.0 92.0 1014.9 3.2 SSW 3.2 0.0 0.0
03:35 8.9 92.0 1015.1 1.6 SSW 4.8 0.0 0.0
03:40 8.9 92.0 1014.9 1.6 SSW 4.8 0.0 0.0
03:45 8.9 92.0 1014.9 3.2 SSW 4.8 0.0 0.0
03:50 8.9 92.0 1014.9 3.2 S 8.0 0.0 0.0
03:55 8.9 92.0 1015.0 4.8 S 8.0 0.0 0.0
04:00 8.9 92.0 1015.0 0.0 S 6.4 0.0 0.0
04:05 8.9 92.0 1014.9 1.6 S 8.0 0.0 0.0
04:10 8.9 92.0 1014.8 3.2 SSE 8.0 0.0 0.0
04:15 8.8 92.0 1014.8 1.6 SSE 4.8 0.0 0.0
04:20 8.8 92.0 1014.9 1.6 SSE 4.8 0.0 0.0
04:25 8.8 92.0 1014.8 1.6 SSE 4.8 0.0 0.0
04:30 8.8 92.0 1014.9 0.0 SSE 4.8 0.0 0.0
04:35 8.8 92.0 1014.9 0.0 SSE 3.2 0.0 0.0
04:40 8.8 92.0 1015.1 0.0 SSE 0.0 0.0 0.0
04:45 8.8 92.0 1015.1 0.0 SSE 0.0 0.0 0.0
04:50 8.8 92.0 1015.1 0.0 SSE 0.0 0.0 5.0
04:55 8.8 92.0 1015.1 0.0 SSE 0.0 0.0 7.0
05:00 8.9 92.0 1015.3 0.0 SSE 0.0 0.0 9.0
05:05 8.9 92.0 1015.1 0.0 SSE 0.0 0.0 12.0
05:10 9.1 92.0 1015.2 0.0 SSE 0.0 0.0 16.0
05:15 9.1 92.0 1015.2 0.0 SSE 0.0 0.0 19.0
05:20 9.2 92.0 1015.2 0.0 SSE 0.0 0.0 23.0
05:25 9.2 93.0 1015.1 0.0 S 0.0 0.0 28.0
05:30 9.3 93.0 1015.1 1.6 NNW 4.8 0.0 37.0
05:35 9.4 93.0 1015.5 0.0 NNW 4.8 0.0 39.0
05:40 9.5 93.0 1015.4 0.0 NNW 1.6 0.0 33.0
05:45 9.5 93.0 1015.5 0.0 NNW 0.0 0.0 32.0
05:50 9.6 93.0 1015.5 0.0 NNW 0.0 0.0 35.0
05:55 9.6 93.0 1015.3 0.0 NNW 0.0 0.0 46.0
06:00 9.7 93.0 1015.3 0.0 NNW 0.0 0.0 62.0
06:05 9.8 93.0 1015.3 0.0 NNW 3.2 0.0 62.0
06:10 9.9 93.0 1015.3 0.0 NNW 3.2 0.0 69.0
06:15 10.1 93.0 1015.1 0.0 NNW 1.6 0.0 79.0
06:20 10.2 93.0 1015.2 0.0 NNW 0.0 0.0 86.0
06:25 10.3 93.0 1015.2 0.0 NNW 0.0 0.0 104.0
06:30 10.4 93.0 1015.2 0.0 NNW 0.0 0.0 114.0
06:35 10.6 93.0 1015.2 0.0 NNW 0.0 0.0 120.0
06:40 10.7 93.0 1015.1 0.0 NNW 0.0 0.0 160.0
06:45 11.0 93.0 1015.2 0.0 NNW 0.0 0.0 225.0
06:50 11.3 93.0 1015.1 0.0 NNW 0.0 0.0 174.0
06:55 11.6 93.0 1014.9 0.0 N 0.0 0.0 169.0
07:00 11.8 93.0 1014.9 0.0 NNW 0.0 0.0 185.0
07:05 11.9 92.0 1014.9 0.0 NNW 0.0 0.0 211.0
07:10 11.9 92.0 1014.7 0.0 NNW 0.0 0.0 214.0
07:15 12.2 92.0 1014.7 0.0 NNW 0.0 0.0 211.0
07:20 12.4 92.0 1014.6 0.0 NNW 0.0 0.0 236.0
07:25 12.3 90.0 1014.6 4.8 NW 4.8 0.0 237.0
07:30 12.7 90.0 1014.6 0.0 NW 6.4 0.0 244.0
07:35 12.9 88.0 1014.6 0.0 NW 1.6 0.0 251.0
07:40 13.1 88.0 1014.5 1.6 NW 3.2 0.0 262.0
07:45 13.1 86.0 1014.6 1.6 NW 4.8 0.0 255.0
07:50 13.3 86.0 1014.6 0.0 NW 4.8 0.0 292.0
07:55 13.4 86.0 1014.5 0.0 NW 3.2 0.0 339.0
08:00 13.9 86.0 1014.5 0.0 NW 3.2 0.0 352.0
08:00 13.8 84.0 1014.3 0.0 N 3.2 0.0 364.0
08:10 13.9 83.0 1014.1 0.0 N 0.0 0.0 373.0
08:15 14.3 83.0 1014.0 0.0 N 6.4 0.0 443.0
08:20 14.8 84.0 1013.7 1.6 N 6.4 0.0 487.0
08:25 14.9 80.0 1013.6 0.0 N 6.4 0.0 501.0
Màxima 14.9 93.0 1016.4 4.8 NW 8.0 0.0 501.0
Mínima 8.8 80.0 1013.6
Total 0.0